TimeCDT,TemperatureF,Dew PointF,Humidity,Sea Level PressureIn,VisibilityMPH,Wind Direction,Wind SpeedMPH,Gust SpeedMPH,PrecipitationIn,Events,Conditions,WindDirDegrees,DateUTC
12:53 AM,66.9,61.0,81,29.95,10.0,East,3.5,-,N/A,,Mostly Cloudy,90,2013-06-09 05:53:00
1:53 AM,70.0,59.0,68,29.95,10.0,South,4.6,-,N/A,,Scattered Clouds,170,2013-06-09 06:53:00
2:53 AM,64.0,59.0,84,29.95,10.0,Calm,Calm,-,N/A,,Scattered Clouds,0,2013-06-09 07:53:00
3:53 AM,64.9,61.0,87,29.95,10.0,Calm,Calm,-,N/A,,Overcast,0,2013-06-09 08:53:00
4:53 AM,63.0,60.1,90,29.92,10.0,NE,3.5,-,N/A,,Clear,40,2013-06-09 09:53:00
5:53 AM,64.0,60.1,87,29.92,10.0,ENE,4.6,-,N/A,,Scattered Clouds,60,2013-06-09 10:53:00
6:53 AM,66.9,62.1,84,29.91,10.0,NE,4.6,-,N/A,,Partly Cloudy,40,2013-06-09 11:53:00
7:53 AM,72.0,64.9,78,29.91,10.0,SSE,5.8,-,N/A,,Partly Cloudy,160,2013-06-09 12:53:00
8:53 AM,75.9,66.0,71,29.92,10.0,South,8.1,-,N/A,,Clear,190,2013-06-09 13:53:00
9:19 AM,75.2,64.4,69,29.93,10.0,South,12.7,-,N/A,,Mostly Cloudy,180,2013-06-09 14:19:00
9:37 AM,78.8,66.2,65,29.93,10.0,South,11.5,-,N/A,,Mostly Cloudy,180,2013-06-09 14:37:00
9:53 AM,77.0,66.0,69,29.92,10.0,South,8.1,-,N/A,,Mostly Cloudy,190,2013-06-09 14:53:00
10:53 AM,81.0,68.0,65,29.92,10.0,South,6.9,-,N/A,,Scattered Clouds,180,2013-06-09 15:53:00
11:08 AM,78.8,69.8,74,29.92,10.0,South,9.2,-,N/A,,Mostly Cloudy,190,2013-06-09 16:08:00
11:25 AM,75.2,69.8,83,29.92,7.0,South,9.2,-,0.00,Rain,Light Rain,190,2013-06-09 16:25:00
11:53 AM,80.1,70.0,71,29.90,10.0,SSW,10.4,-,0.01,,Mostly Cloudy,200,2013-06-09 16:53:00
12:53 PM,81.0,69.1,67,29.87,10.0,SW,12.7,20.7,0.00,Rain-Thunderstorm,Light Rain,220,2013-06-09 17:53:00
1:13 PM,82.4,66.2,58,29.88,10.0,WSW,12.7,28.8,0.00,,Mostly Cloudy,240,2013-06-09 18:13:00
1:53 PM,84.0,68.0,58,29.84,10.0,SSW,6.9,-,0.00,,Clear,210,2013-06-09 18:53:00
2:53 PM,84.0,69.1,61,29.82,10.0,WSW,10.4,-,N/A,,Clear,240,2013-06-09 19:53:00
3:00 PM,82.4,69.8,66,29.83,10.0,SSW,12.7,-,N/A,Thunderstorm,Partly Cloudy,200,2013-06-09 20:00:00
3:10 PM,75.2,68.0,78,29.87,1.0,West,40.3,47.2,0.12,Rain-Thunderstorm,Light Thunderstorms and Rain,260,2013-06-09 20:10:00
3:14 PM,69.8,64.4,83,29.88,0.2,WSW,24.2,47.2,0.33,Rain-Thunderstorm,Heavy Thunderstorms and Rain,240,2013-06-09 20:14:00
3:21 PM,66.2,62.6,88,29.85,0.5,South,6.9,35.7,0.52,Fog-Rain-Thunderstorm,Heavy Thunderstorms and Rain,170,2013-06-09 20:21:00
3:24 PM,69.8,62.6,78,29.85,1.0,SSE,9.2,29.9,0.53,Rain-Thunderstorm,Thunderstorms and Rain,160,2013-06-09 20:24:00
3:28 PM,69.8,62.6,78,29.85,3.0,South,15.0,-,0.55,Rain-Thunderstorm,Thunderstorms and Rain,170,2013-06-09 20:28:00
3:39 PM,68.0,64.4,88,29.87,3.0,SW,10.4,-,0.60,Rain-Thunderstorm,Thunderstorms and Rain,230,2013-06-09 20:39:00
3:53 PM,69.1,66.9,93,29.87,7.0,WSW,9.2,-,0.61,Rain-Thunderstorm,Light Thunderstorms and Rain,250,2013-06-09 20:53:00
4:14 PM,71.6,68.0,88,29.85,5.0,WSW,3.5,-,0.02,Rain,Light Rain,250,2013-06-09 21:14:00
4:53 PM,72.0,66.0,81,29.84,10.0,Calm,Calm,-,0.02,Rain,Light Rain,0,2013-06-09 21:53:00
5:53 PM,73.0,66.9,81,29.83,10.0,Calm,Calm,-,0.00,,Overcast,0,2013-06-09 22:53:00
6:53 PM,73.9,68.0,82,29.84,10.0,SSW,6.9,-,N/A,,Mostly Cloudy,200,2013-06-09 23:53:00
7:53 PM,73.0,68.0,84,29.82,10.0,SSE,5.8,-,N/A,,Partly Cloudy,150,2013-06-10 00:53:00
8:53 PM,71.1,68.0,90,29.84,10.0,NNW,3.5,-,N/A,,Clear,340,2013-06-10 01:53:00
9:53 PM,70.0,64.9,84,29.86,10.0,West,5.8,-,N/A,,Clear,270,2013-06-10 02:53:00
10:53 PM,66.9,63.0,87,29.88,10.0,WSW,4.6,-,N/A,,Clear,250,2013-06-10 03:53:00
11:53 PM,66.0,63.0,90,29.87,10.0,West,4.6,-,N/A,,Clear,260,2013-06-10 04:53:00